Tarboro, NC

5:58 PM EDT on May 26, 2017 (GMT -0400)
Tarboro-edgecombe

Weather History for KETC - November, 2013

Change the Weather History Date:

Saturday, November 9, 2013

  Actual Average Record
Temperature  
Mean Temperature 44 °F -  
Max Temperature 59 °F 66 °F 80 °F (1987)
Min Temperature 28 °F 39 °F 14 °F (1976)
Degree Days  
Heating Degree Days 22    
Moisture  
Dew Point 34 °F    
Average Humidity 74    
Maximum Humidity 96    
Minimum Humidity 34    
Precipitation  
Precipitation 0.00 in - - ()
Sea Level Pressure  
Sea Level Pressure 30.30 in    
Wind  
Wind Speed 1 mph (SSW)    
Max Wind Speed 10 mph    
Max Gust Speed -    
Visibility 10 miles    
Events      
Averages and records for this station are not official NWS values.
T = Trace of Precipitation, MM = Missing Value Source: NWS Daily Summary

Daily Weather History Graph

Daily Weather History Graph

Search for Another Location

Airport or City:

Trip Planner

Search our weather history database for the weather conditions in past years. The results will help you decide how hot, cold, wet, or windy it might be!

Date:

Astronomy

Nov. 09, 2013 Rise Set
Actual Time 6:40 AM EST 5:06 PM EST
Civil Twilight 6:13 AM EST 5:33 PM EST
Nautical Twilight 5:43 AM EST 6:04 PM EST
Astronomical Twilight 5:12 AM EST 6:34 PM EST
Moon 12:18 PM EST (11/9) 11:32 PM EST (11/9)
Length of Visible Light 11h 20m
Length of Day
10h 26m
Waxing Crescent, 44% of the Moon is Illuminated
Nov 9
Waxing Crescent
Nov 10
First Quarter
Nov 17
Full
Nov 25
Last Quarter
Dec 2
New

Hourly Weather History & Observations

Time (EST) Temp. Windchill Dew Point Humidity Pressure Visibility Wind Dir Wind Speed Gust Speed Precip Events Conditions
12:15 AM 31.8 °F - 30.7 °F 96% 30.32 in 5.0 mi Calm Calm - N/A   Clear
12:35 AM 31.6 °F - 30.4 °F 95% 30.33 in 10.0 mi Calm Calm - N/A   Clear
12:55 AM 31.5 °F - 30.2 °F 95% 30.34 in 10.0 mi Calm Calm - N/A   Clear
1:15 AM 31.3 °F - 29.8 °F 94% 30.33 in 10.0 mi Calm Calm - N/A   Clear
1:35 AM 31.1 °F - 30.0 °F 96% 30.34 in 7.0 mi Calm Calm - N/A   Clear
1:55 AM 30.7 °F - 29.5 °F 95% 30.34 in 10.0 mi Calm Calm - N/A   Clear
2:15 AM 30.0 °F - 28.9 °F 96% 30.35 in 10.0 mi Calm Calm - N/A   Clear
2:35 AM 30.4 °F - 29.1 °F 95% 30.35 in 10.0 mi Calm Calm - N/A   Clear
2:55 AM 30.4 °F - 28.9 °F 94% 30.34 in 10.0 mi Calm Calm - N/A   Clear
3:15 AM 30.4 °F - 28.9 °F 94% 30.35 in 10.0 mi Calm Calm - N/A   Clear
3:35 AM 30.4 °F - 28.8 °F 94% 30.34 in 10.0 mi Calm Calm - N/A   Clear
3:55 AM 30.4 °F - 28.8 °F 94% 30.34 in 10.0 mi Calm Calm - N/A   Clear
4:15 AM 30.6 °F - 29.3 °F 95% 30.34 in 10.0 mi Calm Calm - N/A   Clear
4:35 AM 29.7 °F - 28.2 °F 94% 30.34 in 10.0 mi Calm Calm - N/A   Clear
4:55 AM 30.6 °F - 29.5 °F 96% 30.34 in 10.0 mi Calm Calm - N/A   Clear
5:15 AM 30.2 °F - 29.1 °F 96% 30.35 in 10.0 mi Calm Calm - N/A   Clear
5:35 AM 29.8 °F - 28.8 °F 96% 30.35 in 10.0 mi Calm Calm - N/A   Clear
5:55 AM 30.0 °F - 28.9 °F 96% 30.36 in 7.0 mi Calm Calm - N/A   Clear
6:15 AM 29.8 °F - 28.6 °F 95% 30.36 in 10.0 mi Calm Calm - N/A   Clear
6:35 AM 28.9 °F - 27.9 °F 96% 30.36 in 10.0 mi Calm Calm - N/A   Clear
6:55 AM 29.3 °F - 28.2 °F 96% 30.37 in 10.0 mi Calm Calm - N/A   Clear
7:15 AM 30.0 °F - 28.8 °F 95% 30.37 in 10.0 mi Calm Calm - N/A   Clear
7:35 AM 31.6 °F - 30.6 °F 96% 30.38 in 10.0 mi Calm Calm - N/A   Clear
7:55 AM 33.8 °F - 32.5 °F 95% 30.38 in 10.0 mi Calm Calm - N/A   Clear
8:15 AM 36.9 °F - 33.8 °F 89% 30.39 in 10.0 mi Calm Calm - N/A   Clear
8:35 AM 41.2 °F - 35.4 °F 80% 30.39 in 10.0 mi Calm Calm - N/A   Clear
8:55 AM 44.4 °F - 36.3 °F 73% 30.39 in 10.0 mi Calm Calm - N/A   Clear
9:15 AM 46.4 °F - 36.7 °F 69% 30.39 in 10.0 mi Calm Calm - N/A   Clear
9:35 AM 48.7 °F - 36.7 °F 63% 30.38 in 10.0 mi SE 3.5 mph - N/A   Clear
9:55 AM 51.3 °F - 36.5 °F 57% 30.38 in 10.0 mi ESE 4.6 mph - N/A   Clear
10:15 AM 53.8 °F - 35.1 °F 49% 30.38 in 10.0 mi SE 5.8 mph - N/A   Clear
10:35 AM 54.7 °F - 34.2 °F 46% 30.37 in 10.0 mi SE 3.5 mph - N/A   Clear
10:55 AM 55.4 °F - 33.8 °F 44% 30.36 in 10.0 mi South 8.1 mph - N/A   Clear
11:15 AM 56.7 °F - 32.7 °F 40% 30.35 in 10.0 mi SW 5.8 mph - N/A   Clear
11:35 AM 57.6 °F - 32.7 °F 39% 30.34 in 10.0 mi SSW 8.1 mph - N/A   Clear
11:55 AM 58.3 °F - 32.4 °F 38% 30.33 in 10.0 mi SSW 8.1 mph - N/A   Clear
12:15 PM 59.0 °F - 32.0 °F 36% 30.31 in 10.0 mi SW 6.9 mph - N/A   Clear
12:35 PM 58.8 °F - 31.3 °F 35% 30.30 in 10.0 mi SW 5.8 mph - N/A   Clear
12:55 PM 58.5 °F - 31.5 °F 36% 30.28 in 10.0 mi SW 4.6 mph - N/A   Clear
1:15 PM 58.8 °F - 31.1 °F 35% 30.28 in 10.0 mi SW 6.9 mph - N/A   Clear
1:35 PM 58.8 °F - 31.1 °F 35% 30.27 in 10.0 mi SSW 4.6 mph - N/A   Clear
1:55 PM 59.9 °F - 31.3 °F 34% 30.26 in 10.0 mi WSW 6.9 mph - N/A   Clear
2:15 PM 59.9 °F - 31.8 °F 35% 30.26 in 10.0 mi SW 8.1 mph - N/A   Clear
2:35 PM 59.5 °F - 31.3 °F 34% 30.26 in 10.0 mi SSW 10.4 mph - N/A   Clear
2:55 PM 58.5 °F - 31.5 °F 36% 30.26 in 10.0 mi SSW 5.8 mph - N/A   Clear
3:15 PM 57.4 °F - 31.8 °F 38% 30.26 in 10.0 mi SSW 3.5 mph - N/A   Clear
3:35 PM 57.7 °F - 32.0 °F 38% 30.25 in 10.0 mi SW 4.6 mph - N/A   Clear
3:55 PM 57.7 °F - 32.0 °F 38% 30.25 in 10.0 mi SW 4.6 mph - N/A   Clear
4:15 PM 56.8 °F - 32.4 °F 40% 30.25 in 10.0 mi Calm Calm - N/A   Clear
4:35 PM 56.1 °F - 33.6 °F 43% 30.25 in 10.0 mi Calm Calm - N/A   Clear
4:55 PM 54.1 °F - 35.1 °F 49% 30.25 in 10.0 mi Calm Calm - N/A   Clear
5:15 PM 50.0 °F - 38.1 °F 64% 30.25 in 10.0 mi Calm Calm - N/A   Clear
5:35 PM 47.5 °F - 39.9 °F 75% 30.25 in 10.0 mi Calm Calm - N/A   Clear
5:55 PM 46.4 °F 45.2 °F 39.9 °F 78% 30.26 in 10.0 mi SSW 3.5 mph - N/A   Clear
6:15 PM 45.1 °F - 39.6 °F 81% 30.26 in 10.0 mi Calm Calm - N/A   Clear
6:35 PM 44.6 °F - 40.3 °F 85% 30.25 in 10.0 mi Calm Calm - N/A   Clear
6:55 PM 44.1 °F - 40.6 °F 88% 30.25 in 10.0 mi Calm Calm - N/A   Clear
7:15 PM 44.8 °F - 40.6 °F 85% 30.25 in 10.0 mi Calm Calm - N/A   Clear
7:35 PM 45.1 °F - 41.4 °F 87% 30.25 in 10.0 mi Calm Calm - N/A   Clear
7:55 PM 45.5 °F - 42.3 °F 88% 30.25 in 10.0 mi Calm Calm - N/A   Clear
8:15 PM 45.7 °F - 42.3 °F 88% 30.23 in 10.0 mi Calm Calm - N/A   Clear
8:35 PM 46.0 °F - 42.3 °F 87% 30.22 in 10.0 mi Calm Calm - N/A   Clear
9:35 PM 44.4 °F - 41.2 °F 88% 30.20 in 10.0 mi Calm Calm - N/A   Clear
9:55 PM 43.0 °F - 40.5 °F 91% 30.20 in 10.0 mi Calm Calm - N/A   Clear
10:15 PM 42.3 °F - 39.9 °F 91% 30.20 in 10.0 mi Calm Calm - N/A   Clear
10:35 PM 41.2 °F - 39.0 °F 92% 30.19 in 10.0 mi Calm Calm - N/A   Clear
10:55 PM 40.1 °F - 38.1 °F 93% 30.20 in 10.0 mi Calm Calm - N/A   Clear
11:15 PM 39.4 °F - 37.4 °F 93% 30.20 in 10.0 mi Calm Calm - N/A   Clear
11:35 PM 38.5 °F - 36.5 °F 93% 30.19 in 7.0 mi Calm Calm - N/A   Scattered Clouds
11:55 PM 37.9 °F - 36.1 °F 93% 30.18 in 10.0 mi Calm Calm - N/A   Clear